When you browse on this site, cookies collect data to enhance your experience and personalize the content and advertising you see.
Visit our Privacy Policy to learn more. By continuing to use the site, you agree to this use of cookies and data.
  • en Suisse
  • Liste des pays
  • À 7 jours
  • Température de l'eau
  • Carte satellitaire
  • Carte météo
  • Widgets météo
  • user-avatar
    Se connecter

    Météo par heure à Tebessa

    Ce jour, 27 Juin, Jeudi

    Heure Température Précipitation Vent Pression Humidité
    00:00 +27°C° 0 mm 1 m/s 689 mmHg 40%
    01:00 +26°C° 0 mm 1 m/s 689 mmHg 44%
    02:00 +25°C° 0 mm 1 m/s 688 mmHg 47%
    03:00 +25°C° 0 mm 1 m/s 688 mmHg 51%
    04:00 +24°C° 0 mm 1 m/s 687 mmHg 54%
    05:00 +25°C° 0 mm 1 m/s 688 mmHg 52%
    06:00 +25°C° 0 mm 2 m/s 688 mmHg 50%
    07:00 +26°C° 0 mm 2 m/s 688 mmHg 47%
    08:00 +27°C° 0 mm 2 m/s 689 mmHg 41%
    09:00 +29°C° 0 mm 3 m/s 689 mmHg 35%
    10:00 +30°C° 0 mm 4 m/s 689 mmHg 29%
    11:00 +32°C° 0 mm 4 m/s 689 mmHg 27%
    12:00 +33°C° 0 mm 4 m/s 689 mmHg 24%
    13:00 +34°C° 0 mm 4 m/s 689 mmHg 22%
    14:00 +34°C° 0 mm 4 m/s 688 mmHg 21%
    15:00 +34°C° 0 mm 4 m/s 688 mmHg 21%
    16:00 +35°C° 0 mm 4 m/s 687 mmHg 20%
    17:00 +34°C° 0 mm 5 m/s 687 mmHg 21%
    18:00 +34°C° 0 mm 5 m/s 687 mmHg 22%
    19:00 +33°C° 0 mm 5 m/s 687 mmHg 23%
    20:00 +32°C° 0 mm 5 m/s 687 mmHg 28%
    21:00 +29°C° 0 mm 5 m/s 687 mmHg 34%
    22:00 +28°C° 0 mm 5 m/s 688 mmHg 40%
    23:00 +27°C° 0 mm 4 m/s 687 mmHg 44%

    Demain, 28 Juin, Vendredi

    Heure Température Précipitation Vent Pression Humidité
    00:00 +26°C° 0 mm 3 m/s 687 mmHg 48%
    01:00 +25°C° 0 mm 2 m/s 687 mmHg 52%
    02:00 +24°C° 0 mm 2 m/s 686 mmHg 54%
    03:00 +24°C° 0 mm 1 m/s 686 mmHg 56%
    04:00 +23°C° 0 mm 1 m/s 686 mmHg 58%
    05:00 +24°C° 0 mm 1 m/s 686 mmHg 55%
    06:00 +24°C° 0 mm 1 m/s 686 mmHg 53%
    07:00 +25°C° 0 mm 2 m/s 687 mmHg 50%
    08:00 +26°C° 0 mm 2 m/s 687 mmHg 45%
    09:00 +27°C° 0 mm 2 m/s 687 mmHg 40%
    10:00 +29°C° 0 mm 3 m/s 687 mmHg 35%
    11:00 +30°C° 0 mm 3 m/s 687 mmHg 32%
    12:00 +31°C° 0 mm 3 m/s 687 mmHg 29%
    13:00 +33°C° 0 mm 4 m/s 687 mmHg 25%
    14:00 +33°C° 0 mm 4 m/s 687 mmHg 24%
    15:00 +34°C° 0 mm 5 m/s 687 mmHg 22%
    16:00 +34°C° 0 mm 5 m/s 686 mmHg 21%
    17:00 +34°C° 0 mm 5 m/s 686 mmHg 22%
    18:00 +33°C° 0 mm 5 m/s 687 mmHg 23%
    19:00 +33°C° 0 mm 5 m/s 687 mmHg 24%
    20:00 +30°C° 0 mm 5 m/s 687 mmHg 30%
    21:00 +29°C° 0 mm 4 m/s 687 mmHg 37%
    22:00 +27°C° 0 mm 4 m/s 687 mmHg 44%
    23:00 +26°C° 0 mm 3 m/s 687 mmHg 46%

    Après-demain, 29 Juin, Samedi

    Heure Température Précipitation Vent Pression Humidité
    00:00 +26°C° 0 mm 2 m/s 686 mmHg 49%
    01:00 +25°C° 0 mm 1 m/s 686 mmHg 52%
    02:00 +24°C° 0 mm 1 m/s 686 mmHg 54%
    03:00 +22°C° 0 mm 0 m/s 686 mmHg 55%
    04:00 +21°C° 0 mm 0 m/s 685 mmHg 57%
    05:00 +22°C° 0 mm 0 m/s 686 mmHg 53%
    06:00 +23°C° 0 mm 0 m/s 686 mmHg 50%
    07:00 +24°C° 0 mm 0 m/s 686 mmHg 46%
    08:00 +27°C° 0 mm 1 m/s 687 mmHg 39%
    09:00 +29°C° 0 mm 1 m/s 687 mmHg 32%
    10:00 +31°C° 0 mm 1 m/s 688 mmHg 25%
    11:00 +32°C° 0 mm 2 m/s 688 mmHg 23%
    12:00 +34°C° 0 mm 2 m/s 688 mmHg 20%
    13:00 +35°C° 0 mm 3 m/s 688 mmHg 18%
    14:00 +36°C° 0 mm 3 m/s 688 mmHg 18%
    15:00 +36°C° 0 mm 4 m/s 687 mmHg 17%
    16:00 +37°C° 0 mm 4 m/s 687 mmHg 17%
    17:00 +36°C° 0 mm 4 m/s 687 mmHg 17%
    18:00 +36°C° 0 mm 4 m/s 687 mmHg 18%
    19:00 +35°C° 0 mm 3 m/s 687 mmHg 19%
    20:00 +33°C° 0 mm 4 m/s 687 mmHg 22%
    21:00 +32°C° 0 mm 4 m/s 687 mmHg 26%
    22:00 +29°C° 0 mm 4 m/s 687 mmHg 29%
    23:00 +28°C° 0 mm 3 m/s 687 mmHg 33%

    30 Juin, Dimanche

    Heure Température Précipitation Vent Pression Humidité
    00:00 +27°C° 0 mm 2 m/s 687 mmHg 36%
    01:00 +26°C° 0 mm 1 m/s 687 mmHg 39%
    02:00 +26°C° 0 mm 1 m/s 686 mmHg 41%
    03:00 +25°C° 0 mm 1 m/s 686 mmHg 42%
    04:00 +24°C° 0 mm 1 m/s 686 mmHg 43%
    05:00 +26°C° 0 mm 1 m/s 686 mmHg 39%
    06:00 +27°C° 0 mm 1 m/s 687 mmHg 36%
    07:00 +28°C° 0 mm 2 m/s 687 mmHg 32%
    08:00 +30°C° 0 mm 2 m/s 688 mmHg 28%
    09:00 +33°C° 0 mm 3 m/s 688 mmHg 23%
    10:00 +35°C° 0 mm 3 m/s 689 mmHg 18%
    11:00 +36°C° 0 mm 4 m/s 688 mmHg 17%
    12:00 +36°C° 0 mm 4 m/s 688 mmHg 15%
    13:00 +37°C° 0 mm 5 m/s 688 mmHg 14%
    14:00 +37°C° 0 mm 5 m/s 688 mmHg 14%
    15:00 +39°C° 0 mm 5 m/s 688 mmHg 14%
    16:00 +39°C° 0 mm 5 m/s 687 mmHg 14%
    17:00 +37°C° 0 mm 5 m/s 687 mmHg 15%
    18:00 +36°C° 0 mm 6 m/s 687 mmHg 17%
    19:00 +36°C° 0 mm 6 m/s 687 mmHg 18%
    20:00 +33°C° 0 mm 6 m/s 687 mmHg 27%
    21:00 +30°C° 0 mm 5 m/s 688 mmHg 36%
    22:00 +28°C° 0 mm 4 m/s 688 mmHg 44%
    23:00 +27°C° 0 mm 3 m/s 688 mmHg 47%

    1 Juillet, Lundi

    Heure Température Précipitation Vent Pression Humidité
    00:00 +27°C° 0 mm 2 m/s 687 mmHg 50%
    01:00 +26°C° 0 mm 1 m/s 687 mmHg 53%
    02:00 +25°C° 0 mm 1 m/s 687 mmHg 56%
    03:00 +24°C° 0 mm 1 m/s 687 mmHg 58%
    04:00 +24°C° 0 mm 1 m/s 686 mmHg 61%
    05:00 +24°C° 0 mm 1 m/s 687 mmHg 58%
    06:00 +25°C° 0 mm 1 m/s 687 mmHg 55%
    07:00 +26°C° 0 mm 1 m/s 687 mmHg 52%
    08:00 +28°C° 0 mm 1 m/s 688 mmHg 45%
    09:00 +29°C° 0 mm 1 m/s 688 mmHg 38%
    10:00 +31°C° 0 mm 2 m/s 689 mmHg 30%
    11:00 +32°C° 0 mm 2 m/s 688 mmHg 26%
    12:00 +34°C° 0 mm 3 m/s 688 mmHg 22%
    13:00 +36°C° 0 mm 3 m/s 688 mmHg 18%
    14:00 +36°C° 0 mm 3 m/s 688 mmHg 17%
    15:00 +36°C° 0 mm 3 m/s 688 mmHg 16%
    16:00 +36°C° 0 mm 3 m/s 688 mmHg 15%
    17:00 +35°C° 0 mm 4 m/s 687 mmHg 17%
    18:00 +34°C° 0 mm 5 m/s 687 mmHg 19%
    19:00 +33°C° 0 mm 6 m/s 687 mmHg 20%
    20:00 +30°C° 0 mm 5 m/s 687 mmHg 27%
    21:00 +28°C° 0 mm 5 m/s 687 mmHg 34%
    22:00 +26°C° 0 mm 5 m/s 687 mmHg 41%
    23:00 +25°C° 0 mm 4 m/s 687 mmHg 45%

    2 Juillet, Mardi

    Heure Température Précipitation Vent Pression Humidité
    00:00 +24°C° 0 mm 3 m/s 686 mmHg 48%
    01:00 +24°C° 0 mm 2 m/s 686 mmHg 52%
    02:00 +23°C° 0 mm 2 m/s 686 mmHg 51%
    03:00 +22°C° 0 mm 1 m/s 685 mmHg 49%
    04:00 +22°C° 0 mm 1 m/s 685 mmHg 48%
    05:00 +23°C° 0 mm 1 m/s 686 mmHg 43%
    06:00 +24°C° 0 mm 1 m/s 686 mmHg 38%
    07:00 +25°C° 0 mm 1 m/s 686 mmHg 33%
    08:00 +27°C° 0 mm 1 m/s 687 mmHg 30%
    09:00 +28°C° 0 mm 1 m/s 687 mmHg 27%
    10:00 +30°C° 0 mm 1 m/s 687 mmHg 24%
    11:00 +32°C° 0 mm 1 m/s 687 mmHg 21%
    12:00 +34°C° 0 mm 2 m/s 687 mmHg 17%
    13:00 +35°C° 0 mm 3 m/s 687 mmHg 14%
    14:00 +36°C° 0 mm 3 m/s 687 mmHg 14%
    15:00 +36°C° 0 mm 3 m/s 686 mmHg 13%
    16:00 +36°C° 0 mm 3 m/s 686 mmHg 13%
    17:00 +36°C° 0 mm 3 m/s 686 mmHg 14%
    18:00 +35°C° 0 mm 4 m/s 686 mmHg 16%
    19:00 +34°C° 0 mm 4 m/s 686 mmHg 18%
    20:00 +32°C° 0 mm 4 m/s 686 mmHg 24%
    21:00 +29°C° 0 mm 4 m/s 686 mmHg 31%
    22:00 +27°C° 0 mm 4 m/s 686 mmHg 38%
    23:00 +26°C° 0 mm 4 m/s 686 mmHg 43%
    Voir plus